Weather History for Whiteville, NC

Change the Weather History Date:

Wednesday, January 30, 2013

  Actual Average (KLBT) Record (KLBT)
Temperature  
Mean Temperature 54 °F 44 °F  
Max Temperature 70 °F 55 °F 77 °F (2002)
Min Temperature 37 °F 34 °F 10 °F (2014)
Degree Days  
Heating Degree Days 12 21  
Month to date heating degree days 651  
Since 1 July heating degree days 1701  
Cooling Degree Days 0 0  
Month to date cooling degree days 0  
Year to date cooling degree days 0  
Growing Degree Days 4 (Base 50)    
Moisture  
Dew Point 54 °F    
Average Humidity 86    
Maximum Humidity 99    
Minimum Humidity 71    
Precipitation  
Precipitation 0.00 in 0.12 in 0.59 in (2005)
Month to date precipitation 2.85  
Year to date precipitation 2.85  
Sea Level Pressure  
Sea Level Pressure 29.89 in    
Wind  
Wind Speed 11 mph (South)    
Max Wind Speed 30 mph    
Max Gust Speed 41 mph    
Visibility 9 miles    
Events Rain    
T = Trace of Precipitation, MM = Missing Value Source: NWS Daily Summary

Daily Weather History Graph

Daily Weather History Graph

Search for Another Location

Airport:

Trip Planner

Search our weather history database for the weather conditions in past years. The results will help you decide how hot, cold, wet, or windy it might be!

Date:

Astronomy

Jan. 30, 2013 Rise Set
Actual Time 7:13 AM EST 5:43 PM EST
Civil Twilight 6:47 AM EST 6:09 PM EST
Nautical Twilight 6:17 AM EST 6:39 PM EST
Astronomical Twilight 5:47 AM EST 7:09 PM EST
Moon 9:26 PM EST (1/30) 8:52 AM EST (1/30)
Length of Visible Light 11h 22m
Length of Day
10h 29m
Waning Gibbous, 88% of the Moon is Illuminated
Jan 30
Waning Gibbous
Feb 3
Last Quarter
Feb 10
New
Feb 17
First Quarter
Feb 25
Full

Hourly Weather History & Observations

Time (EST) Temp. Windchill Dew Point Humidity Pressure Visibility Wind Dir Wind Speed Gust Speed Precip Events Conditions
12:15 AM 57.6 °F - 56.8 °F 97% 30.12 in 5.0 mi SSE 5.8 mph - N/A   Clear
12:35 AM 57.6 °F - 57.0 °F 98% 30.11 in 5.0 mi South 5.8 mph - N/A   Scattered Clouds
12:55 AM 56.7 °F - 56.1 °F 98% 30.11 in 5.0 mi South 5.8 mph - N/A   Scattered Clouds
1:15 AM 56.5 °F - 55.9 °F 98% 30.11 in 7.0 mi South 5.8 mph - N/A   Clear
1:35 AM 55.8 °F - 55.2 °F 98% 30.10 in 5.0 mi South 5.8 mph - N/A   Scattered Clouds
1:55 AM 54.9 °F - 54.5 °F 99% 30.10 in 7.0 mi South 6.9 mph - N/A   Clear
2:15 AM 54.3 °F - 53.8 °F 98% 30.08 in 10.0 mi SSE 5.8 mph - N/A   Clear
2:35 AM 53.2 °F - 52.7 °F 98% 30.08 in 10.0 mi South 5.8 mph - N/A   Clear
2:55 AM 52.7 °F - 52.2 °F 98% 30.07 in 10.0 mi South 5.8 mph - N/A   Clear
3:15 AM 51.8 °F - 51.1 °F 97% 30.07 in 10.0 mi South 4.6 mph - N/A   Clear
3:35 AM 50.9 °F - 50.2 °F 97% 30.07 in 7.0 mi South 4.6 mph - N/A   Clear
3:55 AM 49.1 °F - 48.4 °F 97% 30.06 in 7.0 mi South 4.6 mph - N/A   Clear
4:15 AM 47.5 °F - 46.9 °F 98% 30.05 in 7.0 mi South 4.6 mph - N/A   Clear
4:35 AM 45.1 °F 42.0 °F 44.6 °F 98% 30.04 in 7.0 mi SSE 5.8 mph - N/A   Clear
4:55 AM 42.4 °F 38.1 °F 41.9 °F 98% 30.04 in 7.0 mi South 6.9 mph - N/A   Clear
5:15 AM 41.4 °F 37.6 °F 40.6 °F 97% 30.04 in 7.0 mi South 5.8 mph - N/A   Clear
5:35 AM 40.5 °F 35.8 °F 39.7 °F 97% 30.03 in 10.0 mi South 6.9 mph - N/A   Clear
5:55 AM 38.7 °F 33.6 °F 37.9 °F 97% 30.03 in 10.0 mi South 6.9 mph - N/A   Clear
6:15 AM 38.8 °F 33.2 °F 38.1 °F 97% 30.03 in 10.0 mi SSE 8.1 mph - N/A   Clear
6:35 AM 37.6 °F 32.3 °F 36.7 °F 97% 30.03 in 10.0 mi South 6.9 mph - N/A   Clear
6:55 AM 37.4 °F 32.8 °F 36.5 °F 97% 30.03 in 10.0 mi South 5.8 mph - N/A   Clear
7:15 AM 37.4 °F 32.1 °F 36.5 °F 97% 30.02 in 10.0 mi South 6.9 mph - N/A   Clear
7:35 AM 37.6 °F 32.3 °F 36.7 °F 97% 30.02 in 7.0 mi South 6.9 mph - N/A   Clear
7:55 AM 38.5 °F 32.7 °F 37.2 °F 95% 30.02 in 10.0 mi South 8.1 mph - N/A   Clear
8:15 AM 39.2 °F 33.0 °F 37.2 °F 93% 30.01 in 10.0 mi South 9.2 mph 16.1 mph N/A   Clear
8:35 AM 39.4 °F 32.7 °F 36.9 °F 91% 30.01 in 10.0 mi South 10.4 mph - N/A   Scattered Clouds
8:55 AM 40.3 °F 33.4 °F 36.9 °F 88% 30.00 in 10.0 mi South 11.5 mph 19.6 mph N/A   Scattered Clouds
9:15 AM 40.6 °F 33.4 °F 36.9 °F 86% 29.99 in 10.0 mi SSE 12.7 mph 17.3 mph N/A   Scattered Clouds
9:35 AM 41.7 °F 34.8 °F 36.7 °F 82% 29.99 in 10.0 mi South 12.7 mph 18.4 mph N/A   Clear
9:55 AM 47.1 °F - 41.4 °F 80% 29.99 in 10.0 mi South 12.7 mph 19.6 mph N/A   Scattered Clouds
10:15 AM 55.0 °F - 48.0 °F 77% 29.98 in 10.0 mi South 15.0 mph 23.0 mph N/A   Mostly Cloudy
10:35 AM 61.5 °F - 53.6 °F 75% 29.99 in 10.0 mi South 20.7 mph 32.2 mph N/A   Mostly Cloudy
10:55 AM 62.4 °F - 54.3 °F 75% 29.98 in 10.0 mi South 16.1 mph 26.5 mph N/A   Mostly Cloudy
11:15 AM 63.7 °F - 55.4 °F 74% 29.96 in 10.0 mi South 18.4 mph 27.6 mph N/A   Overcast
11:35 AM 64.4 °F - 56.5 °F 75% 29.95 in 10.0 mi South 17.3 mph 21.9 mph N/A   Mostly Cloudy
11:55 AM 65.7 °F - 57.6 °F 75% 29.95 in 10.0 mi South 15.0 mph 35.7 mph N/A   Mostly Cloudy
12:15 PM 66.7 °F - 58.3 °F 74% 29.93 in 10.0 mi South 15.0 mph 28.8 mph N/A   Mostly Cloudy
12:35 PM 66.7 °F - 59.0 °F 76% 29.92 in 10.0 mi South 20.7 mph 26.5 mph N/A   Mostly Cloudy
12:55 PM 68.0 °F - 59.2 °F 73% 29.90 in 10.0 mi South 17.3 mph 31.1 mph N/A   Scattered Clouds
1:15 PM 68.7 °F - 59.9 °F 73% 29.89 in 10.0 mi South 19.6 mph 27.6 mph N/A   Mostly Cloudy
1:35 PM 65.7 °F - 62.1 °F 88% 29.88 in 5.0 mi South 13.8 mph 21.9 mph N/A Rain Light Rain
1:55 PM 68.2 °F - 61.5 °F 79% 29.86 in 10.0 mi South 15.0 mph 24.2 mph N/A   Scattered Clouds
2:15 PM 70.0 °F - 60.1 °F 71% 29.85 in 10.0 mi South 21.9 mph 31.1 mph N/A   Mostly Cloudy
2:35 PM 69.3 °F - 60.1 °F 72% 29.84 in 10.0 mi South 18.4 mph 28.8 mph N/A   Mostly Cloudy
2:55 PM 69.8 °F - 60.8 °F 73% 29.83 in 10.0 mi South 18.4 mph 28.8 mph N/A   Mostly Cloudy
3:15 PM 70.3 °F - 61.2 °F 73% 29.81 in 10.0 mi South 13.8 mph 25.3 mph N/A   Mostly Cloudy
3:35 PM 70.2 °F - 61.7 °F 74% 29.81 in 10.0 mi South 12.7 mph 32.2 mph N/A   Mostly Cloudy
3:55 PM 69.4 °F - 62.1 °F 77% 29.80 in 10.0 mi South 15.0 mph 25.3 mph N/A   Mostly Cloudy
4:15 PM 69.3 °F - 62.2 °F 78% 29.80 in 10.0 mi South 24.2 mph 31.1 mph N/A   Scattered Clouds
4:35 PM 68.9 °F - 62.6 °F 80% 29.79 in 10.0 mi South 16.1 mph 31.1 mph N/A   Scattered Clouds
4:55 PM 68.2 °F - 62.8 °F 83% 29.78 in 7.0 mi South 18.4 mph 26.5 mph N/A   Scattered Clouds
5:15 PM 68.0 °F - 62.6 °F 83% 29.77 in 7.0 mi South 17.3 mph 36.8 mph N/A   Scattered Clouds
5:35 PM 67.5 °F - 62.1 °F 83% 29.75 in 10.0 mi South 19.6 mph 27.6 mph N/A   Scattered Clouds
5:55 PM 67.3 °F - 61.9 °F 83% 29.75 in 10.0 mi South 17.3 mph 26.5 mph N/A   Scattered Clouds
6:15 PM 67.1 °F - 61.7 °F 83% 29.75 in 10.0 mi South 17.3 mph 25.3 mph N/A   Scattered Clouds
6:35 PM 67.5 °F - 61.2 °F 80% 29.74 in 10.0 mi South 17.3 mph 28.8 mph N/A   Scattered Clouds
6:55 PM 67.8 °F - 61.5 °F 80% 29.72 in 10.0 mi South 17.3 mph 27.6 mph N/A   Scattered Clouds
7:15 PM 68.0 °F - 61.7 °F 80% 29.73 in 10.0 mi South 16.1 mph 31.1 mph N/A   Scattered Clouds
7:35 PM 68.0 °F - 61.9 °F 81% 29.71 in 10.0 mi South 15.0 mph 26.5 mph N/A   Scattered Clouds
7:55 PM 68.2 °F - 61.9 °F 80% 29.71 in 10.0 mi South 19.6 mph 28.8 mph N/A   Scattered Clouds
8:15 PM 68.4 °F - 62.1 °F 80% 29.70 in 10.0 mi South 19.6 mph 31.1 mph N/A   Scattered Clouds
8:35 PM 68.4 °F - 62.4 °F 81% 29.69 in 10.0 mi South 24.2 mph 33.4 mph N/A   Scattered Clouds
8:55 PM 68.4 °F - 62.6 °F 82% 29.69 in 10.0 mi South 18.4 mph 31.1 mph N/A   Clear
9:15 PM 68.4 °F - 62.6 °F 82% 29.66 in 7.0 mi South 19.6 mph 36.8 mph N/A   Scattered Clouds
9:35 PM 68.4 °F - 62.8 °F 82% 29.66 in 7.0 mi South 20.7 mph 35.7 mph N/A   Scattered Clouds
9:55 PM 68.5 °F - 62.8 °F 82% 29.65 in 10.0 mi South 23.0 mph 41.4 mph N/A   Clear
10:15 PM 68.9 °F - 63.0 °F 81% 29.63 in 7.0 mi South 26.5 mph 34.5 mph N/A   Clear
10:35 PM 68.5 °F - 63.0 °F 82% 29.62 in 7.0 mi South 25.3 mph 34.5 mph N/A   Scattered Clouds
10:55 PM 68.5 °F - 63.0 °F 82% 29.60 in 7.0 mi South 24.2 mph 31.1 mph N/A   Scattered Clouds
11:15 PM 68.9 °F - 63.1 °F 82% 29.59 in 7.0 mi South 27.6 mph 36.8 mph N/A   Scattered Clouds
11:35 PM 68.9 °F - 63.0 °F 81% 29.58 in 7.0 mi South 29.9 mph 38.0 mph N/A   Scattered Clouds
11:55 PM 68.9 °F - 62.8 °F 81% 29.57 in 7.0 mi South 23.0 mph 39.1 mph N/A   Scattered Clouds